• Join FlightAware (Why Join?)
  • Login
  • US Flag GB Flag 
09:48 EST


 

Airport Tracker/Info


-or-


 

Live Flight TrackerFlight Track Log ✈ SKW6440 ✈ 28-Apr-2013 ✈ KSLC - KDEN

Flight Track Log - Related Links

Times and Time Zones

All times are in EDT time to prevent confusion due to time zone crossing. See the SKW6440 flight status page for this flight to view local times or setup timezone preferences in your user account.

Time Position Orientation Groundspeed Altitude Reporting Facility
EDT Latitude Longitude Course Direction KTS MPH feet Rate Location/Type
08:05 40.7825 -111.9989 103° East 197 227 4,600  Level Salt Lake Center
08:06 40.7531 -112.0183 207° Southwest 187 215 5,800 2,171 Climbing Salt Lake Center
08:07 40.7811 -112.0806 301° West 241 277 8,400 2,500 Climbing Salt Lake Center
08:08 41.0167 -112.0940 90° East  Level FlightAware Approximate
08:08 40.8483 -112.0781 North 255 293 10,800  Level Salt Lake Center
08:09 40.9779 -111.9364 103° East  Level FlightAware Approximate
08:09 40.8825 -111.9764 66° East 316 364 12,900  Level Salt Lake Center
08:10 40.9485 -111.7744 103° East  Level FlightAware Approximate
08:10 40.8958 -111.8564 82° East 338 389 15,200  Level Salt Lake Center
08:11 40.9114 -111.7300 81° East 357 411 17,200 1,950 Climbing Salt Lake Center
08:12 40.9233 -111.5986 83° East 365 420 19,100 1,900 Climbing Salt Lake Center
08:13 40.9136 -111.4586 95° East 383 441 21,000 1,934 Climbing Salt Lake Center
08:14 40.9003 -111.3147 97° East 395 455 23,000 1,785 Climbing Salt Lake Center
08:15 40.8814 -111.1689 100° East 402 463 24,600 1,550 Climbing Salt Lake Center
08:16 40.8633 -111.0186 99° East 414 476 26,100 1,450 Climbing Salt Lake Center
08:17 40.8453 -110.8658 99° East 422 486 27,500 1,388 Climbing Salt Lake Center
08:18 40.8253 -110.7086 99° East 433 498 28,900 1,438 Climbing Salt Lake Center
08:19 40.8050 -110.5433 99° East 436 502 30,400 1,300 Climbing Salt Lake Center
08:20 40.7817 -110.3633 100° East 446 513 31,500 1,050 Climbing Salt Lake Center
08:21 40.7608 -110.2011 100° East 453 521 32,500 992 Climbing Salt Lake Center
08:22 40.7411 -110.0444 99° East 455 524 33,500 942 Climbing Salt Lake Center
08:23 40.7303 -109.8850 95° East 455 524 34,400 950 Climbing Salt Lake Center
08:24 40.7200 -109.7272 95° East 452 520 35,400 1,050 Climbing Salt Lake Center
08:25 40.7067 -109.5422 95° East 452 520 36,500 1,041 Climbing Salt Lake Center
08:26 40.6947 -109.3869 96° East 447 514 37,500 843 Climbing Salt Lake Center
08:27 40.6828 -109.2336 96° East 441 507 38,200 486 Climbing Salt Lake Center
08:29 40.6564 -108.8964 96° East 443 510 39,000 259 Climbing Denver Center
08:30 40.6422 -108.7114 96° East 451 519 39,000  Level Denver Center
08:31 40.6289 -108.5497 96° East 460 529 39,000  Level Denver Center
08:32 40.6147 -108.3883 97° East 463 533 39,000  Level Denver Center
08:33 40.6014 -108.2269 96° East 464 534 39,000  Level Denver Center
08:34 40.5867 -108.0392 96° East 462 532 39,000  Level Denver Center
08:35 40.5747 -107.8775 96° East 462 532 39,000  Level Denver Center
08:36 40.5614 -107.7194 96° East 456 525 39,000  Level Denver Center
08:37 40.5486 -107.5633 96° East 450 518 39,000  Level Denver Center
08:38 40.5344 -107.3825 96° East 446 513 39,000 50 Level Denver Center
08:39 40.5197 -107.2275 97° East 445 512 39,100  Climbing Denver Center
08:40 40.5072 -107.0569 95° East 449 517 39,000 -50 Descending Denver Center
08:41 40.4922 -106.8931 97° East 449 517 39,000  Level Denver Center
08:42 40.4775 -106.7294 97° East 450 518 39,000 -1,289 Level Denver Center
08:43 40.4642 -106.5639 96° East 453 521 36,400 -2,826 Descending Denver Center
08:44 40.4472 -106.3881 97° East 460 529 33,300 -3,074 Descending Denver Center
08:45 40.4339 -106.2297 96° East 459 528 30,200 -3,074 Descending Denver Center
08:46 40.4183 -106.0747 97° East 453 521 27,100 -3,124 Descending Denver Center
08:47 40.4028 -105.9103 97° East 448 516 23,900 -2,727 Descending Denver Center
08:48 40.3867 -105.7514 98° East 437 503 21,600 -1,884 Descending Denver Center
08:49 40.3731 -105.6114 97° East 393 452 20,100 -1,444 Descending Denver Center
08:50 40.3608 -105.4822 97° East 359 413 18,400 -1,850 Descending Denver Center
08:51 40.3419 -105.3300 99° East 344 396 16,000 -1,934 Descending Denver Center
08:52 40.3256 -105.2142 100° East 325 374 14,500 -1,450 Descending Denver Center
08:53 40.3094 -105.0975 100° East 324 373 13,100 -744 Descending Denver Center
08:54 40.2842 -104.9847 106° East 328 377 13,000 -496 Descending Denver Center
08:55 40.2403 -104.8811 119° Southeast 325 374 12,100 -1,289 Descending Denver Center
08:56 40.1725 -104.8089 141° Southeast 299 344 10,400 -1,537 Descending Denver Center
08:57 40.1089 -104.7619 151° Southeast 265 305 9,000 -1,289 Descending Denver Center
08:58 40.0531 -104.7175 149° Southeast 237 273 7,800 -992 Descending Denver Center
08:59 39.9944 -104.6947 163° South 217 250 7,000 -694 Descending Denver Center
09:00 39.9467 -104.6956 181° South 174 200 6,400 -590 Descending Denver Center